Regional Weather Roundup
Issued by NWS Sterling, VA

Home | Current Version | Previous Version | Graphics & Text | Print | Product List | Glossary On
Versions: 1 2 3 4 5 6 7 8 9 10 11 12 13 14 15 16 17 18 19 20 21 22 23 24 25 26 27 28
000
ASUS41 KLWX 271711
RWRLWX

REGIONAL WEATHER ROUNDUP
NATIONAL WEATHER SERVICE BALTIMORE MD/WASHINGTON DC
100 PM EDT SAT AUG 27 2016

Note: "FAIR" indicates few or no clouds below 12,000 feet
with no significant weather and/or obstructions to visibility.
 TC=TEMPERATURE CELSIUS

 * =Non NWS site. Station does not report precipitation (e.g. rain,
    snow, etc.), thunder, or fog.

DCZ001-MDZ009-015-VAZ040>042-051-053>054-271800-
WASHINGTON METRO

CITY           SKY/WX    TMP DP  RH WIND       PRES   REMARKS
WASHINGTON NAT MOSUNNY   89  66  46 SE8       30.17F HX  91
DULLES         MOSUNNY   88  63  43 E9        30.18F
ANDREWS AFB    SUNNY     87  65  47 E8        30.18S
FT BELVOIR     SUNNY     88  64  45 SE7       30.17F
QUANTICO       SUNNY     89  67  47 SE6       30.17  HX  92
COLLEGE PARK*  SUNNY     88  64  45 SE5       30.17F
LEESBURG*      MOSUNNY   90  66  45 SE3       30.19F HX  92
MANASSAS*      SUNNY     90  66  45 SE6G16    30.18F HX  92
GAITHERSBURG*  SUNNY     86  68  54 SE6       30.23S

$$

MDZ006>007-011-014-271800-
BALTIMORE METRO

CITY           SKY/WX    TMP DP  RH WIND       PRES   REMARKS
BWI AIRPORT    MOSUNNY   86  65  49 E9        30.18S
MD SCIENCE CTR   N/A     86  64  47 MISG      30.18F
MARTIN STATE   MOSUNNY   88  72  58 E6        30.19F HX  94
ANNAPOLIS      SUNNY     85  68  56 E8        30.18S
FORT MEADE*    SUNNY    N/A N/A N/A SE8       30.21S

$$

MDZ012-015-019>023-271800-
MARYLAND EASTERN SHORE

CITY           SKY/WX    TMP DP  RH WIND       PRES   REMARKS
OCEAN CITY     SUNNY     83  70  64 NE13      30.16S
SALISBURY      SUNNY     88  61  40 E10       30.15F
BAY BRIDGE AP* SUNNY     88  68  51 E5        30.18S HX  91
CAMBRIDGE*     SUNNY     86  63  45 E6        30.16F
EASTON*        SUNNY     90  72  55 E9        30.20F HX  96

$$

MDZ017>025-271800-
SOUTHERN MARYLAND

CITY           SKY/WX    TMP DP  RH WIND       PRES   REMARKS
PATUXENT RIVER MOSUNNY   87  64  46 SE7       30.16F
ST INIGOES     SUNNY     88  65  46 NE8       30.16S HX  90
LEONARDTOWN*   SUNNY     86  63  45 NE8       30.19S

$$

MDZ003>005-271800-
NORTH CENTRAL MARYLAND

CITY           SKY/WX    TMP DP  RH WIND       PRES   REMARKS
FREDERICK*     MOSUNNY   88  72  58 E3        30.21F HX  94
HAGERSTOWN APT PTSUNNY   87  64  46 S8        30.19F

$$

MDZ501>502-271800-
WESTERN MARYLAND

CITY           SKY/WX    TMP DP  RH WIND       PRES   REMARKS
OAKLAND*       SUNNY     77  64  65 SE9       30.29S
CUMBERLAND*    SUNNY     88  63  42 S3        30.22F

$$

VAZ025>031-271800-
SHENANDOAH VALLEY

CITY           SKY/WX    TMP DP  RH WIND       PRES   REMARKS
WINCHESTER*    MOSUNNY   88  68  51 SE6       30.19F HX  91
FRONT ROYAL*   FAIR      86  70  58 E6        30.18F HX  90
LURAY*         PTSUNNY   86  68  54 S6        30.19F
NEW MARKET*    PTSUNNY  N/A N/A N/A CALM      30.17F
STAUNTON*      MOSUNNY   85  70  59 CALM      30.23S HX  90
WAYNESBORO*    FAIR      85  68  56 E7        30.22F

$$

WVZ021-048>050-054>055-271800-
EASTERN WEST VIRGINIA PANHANDLE

CITY           SKY/WX    TMP DP  RH WIND       PRES   REMARKS
MARTINSBURG    SUNNY     87  66  49 E7        30.18F
PETERSBURG*    PTSUNNY   88  69  53 CALM      30.18F HX  93

$$

VAZ036>039-050-271800-
CENTRAL FOOTHILLS

CITY           SKY/WX    TMP DP  RH WIND       PRES   REMARKS
CHARLOTTESVILL MOSUNNY   88  68  51 NE9       30.18F HX  91
CULPEPER*      MOSUNNY   89  69  52 NE3       30.18F HX  93
ORANGE*          N/A     90  68  48 CALM      30.19F HX  93
GORDONSVILLE*  FAIR      90  72  55 SE5       30.17F HX  96
WARRENTON*     FAIR      90  61  38 E5        30.18F HX  90

$$

VAZ055>057-271800-
NORTH AND CENTRAL PIEDMONT

CITY           SKY/WX    TMP DP  RH WIND       PRES   REMARKS
FREDERICKSBRG*   N/A     90  69  50 E6        30.16F HX  94
STAFFORD*      SUNNY     90  64  42 E6        30.21F HX  91

$$

NCZ024-NYZ072-PAZ021-071-VAZ022-071-271800-
OTHER REGIONAL OBSERVATIONS

CITY           SKY/WX    TMP DP  RH WIND       PRES   REMARKS
NEW YORK CITY    N/A     88  57  35 MISG        N/A
PHILADELPHIA   MOSUNNY   89  59  36 E12       30.17F
PITTSBURGH     CLOUDY    86  62  44 VRB3      30.18F
ROANOKE        MOSUNNY   87  72  60 SE3       30.21F HX  93
RICHMOND       MOSUNNY   91  65  41 VRB7      30.15S HX  93
RALEIGH        MOSUNNY   94  70  45 E9        30.12F HX 100

$$

ANZ530>537-271800-
MARINE OBSERVATIONS

STATION/POSITION TIME  TEMP    WIND        PRES
                       AIR SEA DIR/SP/G
                 (UTC) (F)     (DEG/KT/KT) (MB)
THOMAS PT LIGHT  1700   83 83   80/  3/  4 1023.2F
BALT KEY BRIDGE  1642   82     140/  6/  7 1022.1F
COVE POINT       1642   84     100/  4/  5 1022.1F
LEWISETTA        1642   83 84   80/  4/  6 1021.2R
SOLOMONS ISLAND  1642   84 85   60/  6/  9   N/A
PINEY POINT      1648          120/  8/  9   N/A

$$





USA.gov is the U.S. government's official web portal to all federal, state and local government web resources and services.